Location: G�nzburg
(48.4565°N, 10.3217°E)
Time: 14:14:24
(UTC+01:00)

ISS - Pass Details

Date: 13 November 2017
Orbit: 402 x 407 km, 51.6° (Epoch: 23 November)

Event Time Altitude Azimuth Distance (km) Brightness Sun altitude
Exits shadow 06:35:02 11° 281° (W) 1,384 -1.8 -8.3°
Maximum altitude 06:37:53 37° 213° (SSW) 643 -2.9 -7.8°
Drops below altitude 10° 06:40:55 10° 144° (SE) 1,450 -0.1 -7.3°
Sets 06:43:04 0° 136° (SE) 2,306 1.3 -7.0°
